This demonstration page uses our WeatherBlox Daily Observations layout. Learn more.

Left ArrowRight Arrow

Hourly Observations for September 13, 2019

Temp ( °F °C ) Dew Point ( °F °C ) Humidity (%) Winds ( mph kmh ) Pressure ( in mb ) Visibility ( mi km ) Precip ( " mm )
12:54 am 00:54 Clear 64 17.8 50 10 60 60 WNW 12 19 30.09 1019 10 16 0.00 0.00
1:54 am 01:54 Clear 62 16.7 50 10 65 65 W 10 17 30.11 1020 10 16 0.00 0.00
2:54 am 02:54 Clear 60 15.6 50 10 70 70 W 10 17 30.12 1020 10 16 0.00 0.00
3:54 am 03:54 Clear 58 14.4 50 10 75 75 WSW 6 9 30.13 1020 10 16 0.00 0.00
4:54 am 04:54 Clear 57 13.9 50 10 78 78 WSW 8 13 30.14 1021 10 16 0.00 0.00
5:54 am 05:54 Clear 56 13.3 49 9.4 77 77 W 8 13 30.15 1021 10 16 0.00 0.00
6:54 am 06:54 Clear 56 13.3 49 9.4 77 77 WSW 9 15 30.18 1022 10 16 0.00 0.00
7:54 am 07:54 Sunny 56 13.3 49 9.4 77 77 WSW 10 17 30.21 1023 10 16 0.00 0.00
8:54 am 08:54 Sunny 62 16.7 50 10 65 65 WNW 8 13 30.22 1023 10 16 0.00 0.00
9:54 am 09:54 Sunny 68 20 50 10 53 53 WNW 15 24 30.21 1023 10 16 0.00 0.00
10:54 am 10:54 Sunny 72 22.2 50 10 46 46 NW 15 24 30.20 1023 10 16 0.00 0.00
11:54 am 11:54 Sunny 76 24.4 49 9.4 39 39 WNW 15 24 30.18 1022 10 16 0.00 0.00
12:54 pm 12:54 Sunny 79 26.1 49 9.4 35 35 WNW 16 26 30.17 1022 10 16 0.00 0.00
1:54 pm 13:54 Sunny 81 27.2 47 8.3 30 30 WNW 15 24 30.15 1021 10 16 0.00 0.00
2:54 pm 14:54 Sunny 83 28.3 48 8.9 30 30 W 13 20 30.13 1020 10 16 0.00 0.00
3:54 pm 15:54 Sunny 83 28.3 48 8.9 30 30 W 10 17 30.12 1020 10 16 0.00 0.00
4:54 pm 16:54 Sunny 84 28.9 49 9.4 30 30 WSW 13 20 30.10 1019 10 16 0.00 0.00
5:54 pm 17:54 Sunny 83 28.3 50 10 32 32 WSW 7 11 30.09 1019 10 16 0.00 0.00
6:54 pm 18:54 Sunny 79 26.1 54 12.2 42 42 SSW 5 7 30.09 1019 10 16 0.00 0.00
7:54 pm 19:54 Clear 70 21.1 56 13.3 61 61 S 7 11 30.10 1019 10 16 0.00 0.00
8:54 pm 20:54 Cloudy 69 20.6 58 14.4 68 68 S 7 11 30.11 1020 10 16 0.00 0.00
9:54 pm 21:54 Mostly Cloudy 66 18.9 58 14.4 75 75 S 6 9 30.12 1020 10 16 0.00 0.00
10:54 pm 22:54 Clear 63 17.2 57 13.9 81 81 S 6 9 30.12 1020 10 16 0.00 0.00
11:54 pm 23:54 Clear 61 16.1 55 12.8 81 81 S 9 15 30.11 1020 10 16 0.00 0.00

Powered by AerisWeather